Location: ????????
(55.3975°N, 38.2844°E)
Time: 14:20:27
(UTC+00:00)

BlueWalker 3 - Pass Details

Date: 15 August 2024
Orbit: 475 x 487 km, 53.2° (Epoch: 14 September)

Event Time Altitude Azimuth Distance (km) Brightness Sun altitude
Exits shadow 00:00:32 22° 246° (WSW) 1,123 3.2 -13.9°
Maximum altitude 00:02:49 60° 172° (S) 568 1.9 -13.7°
Drops below altitude 10° 00:06:35 10° 92° (E) 1,688 5.1 -13.4°
Sets 00:08:46 0° 89° (E) 2,571 6.2 -13.2°
